Terug naar catalogus

STARLINK-31138

ActiefCommunicatieVLEO
NORAD 58806·PAYLOAD·🇺🇸 United States

Gelanceerd Jan 15, 2024 vanaf Cape Canaveral Space Force Station

Loading…

Volgende Passages (komende 24 uur)

TLE

VersSource: CelesTrak SupGP

Epoch: Sep 15, 2026, 02:48 UTC

1 58806C 24012V   26258.11715278 -.00021515  00000+0 -77933-3 0  2586
2 58806  43.0013 175.6009 0001404 270.7751 130.3747 15.27587402    13

Volg STARLINK-31138 in realtime met AllMySat

Download on the App Store